R/V Knorr Calliope CSV data file  (Time stamps are GMT)
Date, Time_GMT, Depth12, Depth35, Air_Temp, WXT5_Ta, WXT5_Pa, dec_lat, dec_lon, EDO_knt, GPS_COG, GPS_SOG, Gyro, IMET_BPR, IMET_SWR, WXT5_Ri, WXT5_Rc, HRH, WXT5_Ua, WXT5_Dm, WXT5_Sm, SBE45C, SBE45S, SBE45T, Salinity, SSCND, Fluorometer, SSTMP, SSV, Wnd_Dir, TWD_5, Wnd_Spd, TWS_5, HdChkSum=52
2008/04/02, 00:00:14, 476.90, 0.00, 2.98, 3.40, 1019.3, 62.9989050, -11.7109680, , 9.50, 9.68, 19.90, 1018.41, 0.20, 0.0, 19.42, 62.49, 62.9, 346, 14.8, 37.01560, 35.14350, 8.7155, 35.1435, 37.0156, 85.70, 7.6200, 1481.26, 29.50, 353.6, 8.90, 10.8, 52
2008/04/02, 00:01:14, 478.50, 0.00, 2.90, 3.40, 1019.5, 63.0008980, -11.7090530, , 48.00, 5.05, 23.00, 1019.74, 0.00, 0.0, 19.42, 59.57, 60.5, 348, 15.4, 37.08850, 35.20830, 8.7280, 35.2083, 37.0885, 83.60, 7.6185, 1481.28, 23.40, 1.4, 9.94, 11.5, 52
2008/04/02, 00:02:13, 473.50, 0.00, 2.73, 3.30, 1018.7, 63.0026820, -11.7072570, , 26.40, 5.91, 21.10, 1019.66, -0.30, 0.0, 19.42, 57.82, 61.0, 354, 16.7, 37.09280, 35.20880, 8.7319, 35.2088, 37.0928, 83.90, 7.6158, 1481.27, 18.40, 8.8, 9.24, 12.4, 52
2008/04/02, 00:03:13, 473.10, 0.00, 2.79, 3.30, 1019.4, 63.0045580, -11.7055100, , 27.90, 8.37, 19.90, 1019.76, -0.20, 0.0, 19.42, 58.35, 58.8, 343, 13.8, 37.11120, 35.20930, 8.7510, 35.2093, 37.1112, 83.60, 7.6123, 1481.26, 21.40, 355.6, 10.59, 11.5, 52
2008/04/02, 00:04:14, 480.40, 0.00, 2.79, 3.30, 1019.5, 63.0066080, -11.7035820, , 27.80, 8.62, 21.70, 1020.44, 0.00, 0.0, 19.42, 59.12, 61.7, 345, 14.0, 37.10500, 35.20690, 8.7468, 35.2069, 37.1050, 83.90, 7.6079, 1481.24, 32.00, 359.4, 8.07, 9.4, 52
2008/04/02, 00:05:14, 476.80, 0.00, 2.93, 3.30, 1019.1, 63.0086170, -11.7017280, , 13.60, 7.33, 22.70, 1018.98, -0.10, 0.0, 19.42, 60.17, 59.1, 352, 17.0, 37.11390, 35.20810, 8.7551, 35.2081, 37.1139, 84.80, 7.6027, 1481.22, 11.20, 5.0, 10.23, 15.2, 52
2008/04/02, 00:06:14, 473.20, 0.00, 2.84, 3.30, 1018.7, 63.0106600, -11.6997130, , 23.20, 7.84, 20.30, 1019.53, -0.10, 0.0, 19.42, 58.03, 57.9, 358, 18.3, 37.08820, 35.19560, 8.7403, 35.1956, 37.0882, 84.50, 7.5959, 1481.20, 25.50, 14.6, 10.80, 14.2, 52
2008/04/02, 00:07:14, 467.20, 0.00, 2.73, 3.20, 1019.2, 63.0126920, -11.6978480, , 29.70, 8.28, 21.50, 1019.45, -0.40, 0.0, 19.42, 55.77, 56.8, 358, 18.9, 37.09030, 35.19580, 8.7424, 35.1958, 37.0903, 84.20, 7.5882, 1481.17, 38.50, 13.4, 8.36, 12.2, 52
2008/04/02, 00:08:14, 471.50, 0.00, 2.62, 3.10, 1019.3, 63.0145820, -11.6960630, , 16.30, 7.11, 19.00, 1020.53, -0.40, 0.0, 19.42, 55.91, 56.6, 352, 16.5, 37.10580, 35.21080, 8.7437, 35.2108, 37.1058, 85.10, 7.5779, 1481.13, 23.10, 2.5, 11.09, 12.5, 52
2008/04/02, 00:09:14, 471.90, 0.00, 2.68, 3.10, 1018.4, 63.0166650, -11.6942230, , 29.40, 10.74, 20.80, 1019.47, 0.00, 0.0, 19.42, 56.01, 59.6, 347, 15.4, 37.10800, 35.19230, 8.7647, 35.1923, 37.1080, 85.40, 7.5714, 1481.10, 19.80, 358.1, 10.53, 12.1, 52
2008/04/02, 00:10:14, 475.40, 0.00, 2.51, 3.10, 1019.6, 63.0186320, -11.6923250, , 22.70, 8.65, 21.60, 1020.42, -0.20, 0.0, 19.42, 54.17, 54.7, 346, 13.0, 37.08510, 35.20420, 8.7283, 35.2042, 37.0851, 86.40, 7.5661, 1481.08, 20.10, 356.4, 10.19, 10.2, 52
2008/04/02, 00:11:14, 471.50, 0.00, 2.54, 3.00, 1019.2, 63.0206770, -11.6904100, , 12.80, 10.11, 23.70, 1020.79, -0.40, 0.0, 19.42, 54.86, 58.1, 350, 15.2, 37.07150, 35.18560, 8.7327, 35.1856, 37.0715, 87.90, 7.5656, 1481.02, 15.40, 1.6, 8.15, 11.6, 52
2008/04/02, 00:12:13, 474.20, 0.00, 2.59, 3.10, 1019.1, 63.0226730, -11.6883420, , 7.50, 7.38, 20.10, 1019.80, -0.20, 0.0, 19.42, 57.66, 58.6, 348, 15.7, 37.06570, 35.19980, 8.7122, 35.1998, 37.0657, 86.40, 7.5676, 1481.09, 20.90, 359.6, 9.46, 12.5, 52
2008/04/02, 00:13:13, 466.90, 0.00, 2.56, 3.10, 1019.1, 63.0247670, -11.6862100, , 28.90, 8.43, 19.20, 1020.79, -0.40, 0.0, 19.42, 57.85, 58.9, 345, 14.1, 37.06940, 35.20760, 8.7083, 35.2076, 37.0694, 86.90, 7.5708, 1481.09, 17.70, 358.6, 10.24, 10.5, 52
2008/04/02, 00:14:14, 465.80, 0.00, 2.51, 3.00, 1019.8, 63.0268930, -11.6842750, , 13.30, 8.18, 20.90, 1020.17, -0.40, 0.0, 19.42, 57.29, 60.1, 358, 15.0, 37.06010, 35.20690, 8.6992, 35.2069, 37.0601, 86.40, 7.5735, 1481.11, 17.50, 9.9, 9.12, 11.1, 52
2008/04/02, 00:15:14, 474.80, 0.00, 2.56, 3.00, 1019.4, 63.0288700, -11.6823270, , 30.90, 8.83, 22.20, 1019.49, -0.20, 0.0, 19.42, 57.69, 56.9, 352, 15.0, 37.04910, 35.20040, 8.6940, 35.2004, 37.0491, 85.40, 7.5749, 1481.11, 33.70, 4.9, 7.09, 9.8, 52
2008/04/02, 00:16:14, 472.20, 0.00, 2.65, 3.00, 1019.5, 63.0309570, -11.6802770, , 5.40, 9.34, 19.80, 1020.03, -0.20, 0.0, 19.42, 57.16, 60.6, 1, 16.8, 37.05650, 35.20590, 8.6963, 35.2059, 37.0565, 85.40, 7.5752, 1481.11, 22.70, 14.2, 9.86, 13.7, 52
2008/04/02, 00:17:14, 471.20, 0.00, 2.73, 3.10, 1019.2, 63.0330880, -11.6780470, , 24.90, 8.35, 21.00, 1020.06, 0.00, 0.0, 19.42, 58.75, 58.7, 350, 15.9, 37.04000, 35.20010, 8.6846, 35.2001, 37.0400, 86.60, 7.5739, 1481.09, 34.80, 5.9, 9.75, 12.8, 52
2008/04/02, 00:18:14, 466.90, 0.00, 2.56, 3.10, 1020.2, 63.0351320, -11.6760250, , 25.80, 8.67, 20.20, 1020.22, 0.10, 0.0, 19.42, 56.04, 58.3, 349, 16.2, 37.06530, 35.20470, 8.7069, 35.2047, 37.0653, 85.70, 7.5661, 1481.08, 20.60, 358.8, 10.07, 12.5, 52
2008/04/02, 00:19:14, 468.00, 0.00, 2.62, 3.10, 1019.1, 63.0373630, -11.6736850, , 21.50, 10.56, 20.20, 1019.61, -0.30, 0.0, 19.42, 57.29, 58.3, 355, 17.0, 37.07200, 35.20700, 8.7116, 35.2070, 37.0720, 84.80, 7.5547, 1481.04, 27.90, 11.1, 9.27, 12.6, 52
2008/04/02, 00:20:14, 470.20, 0.00, 2.59, 3.00, 1019.3, 63.0395400, -11.6717320, , 40.50, 7.77, 22.20, 1020.22, 0.00, 0.0, 19.42, 57.24, 59.2, 0, 17.3, 37.06810, 35.20900, 8.7055, 35.2090, 37.0681, 84.80, 7.5413, 1480.99, 38.60, 23.3, 8.97, 11.9, 52
2008/04/02, 00:21:14, 464.10, 0.00, 2.65, 3.10, 1018.8, 63.0416730, -11.6696380, , 31.50, 10.48, 21.70, 1020.59, -0.10, 0.0, 19.42, 58.64, 60.4, 353, 15.5, 37.06070, 35.19810, 8.7087, 35.1981, 37.0607, 84.50, 7.5284, 1480.91, 37.40, 9.8, 9.95, 11.4, 52
2008/04/02, 00:22:14, 0.00, 0.00, 2.70, 3.10, 1019.3, 63.0436150, -11.6677570, , 13.80, 5.88, 20.00, 1021.19, 0.00, 0.0, 19.42, 59.15, 60.4, 353, 15.6, 37.06610, 35.18510, 8.7274, 35.1851, 37.0661, 85.70, 7.5165, 1480.87, 19.40, 4.1, 9.73, 13.2, 52
2008/04/02, 00:23:13, 467.80, 0.00, 2.65, 3.20, 1019.3, 63.0455820, -11.6659350, , 11.70, 7.97, 19.20, 1020.41, 0.10, 0.0, 19.42, 59.52, 60.2, 359, 17.1, 37.03450, 35.17350, 8.7055, 35.1735, 37.0345, 85.70, 7.5028, 1480.83, 23.00, 16.7, 9.14, 13.9, 52
2008/04/02, 00:24:13, 464.90, 0.00, 2.65, 3.10, 1018.8, 63.0477820, -11.6637580, , 31.80, 8.99, 21.80, 1020.59, -0.10, 0.0, 19.42, 58.19, 59.3, 0, 16.4, 37.04840, 35.17860, 8.7151, 35.1786, 37.0484, 84.50, 7.4849, 1480.65, 38.40, 15.1, 8.89, 11.5, 52
2008/04/02, 00:25:14, 467.30, 0.00, 2.70, 3.10, 1019.4, 63.0499920, -11.6617700, , 19.70, 8.85, 18.40, 1020.61, 0.00, 0.0, 19.42, 59.30, 58.8, 355, 18.3, 37.04560, 35.19490, 8.6958, 35.1949, 37.0456, 83.60, 7.4617, 1480.54, 39.40, 12.1, 9.70, 14.9, 52
2008/04/02, 00:26:14, 467.40, 0.00, 2.59, 3.10, 1020.1, 63.0519930, -11.6600700, , 21.20, 7.11, 21.60, 1020.20, -0.30, 0.0, 19.42, 56.87, 57.2, 349, 15.1, 36.95740, 35.12260, 8.6746, 35.1226, 36.9574, 79.60, 7.4382, 1480.45, 33.20, 3.3, 10.24, 10.9, 52
2008/04/02, 00:27:14, 462.40, 0.00, 2.56, 3.00, 1018.7, 63.0541020, -11.6579970, , 25.80, 8.86, 21.70, 1019.32, -0.20, 0.0, 19.42, 57.21, 59.1, 352, 18.5, 36.93090, 35.11370, 8.6553, 35.1137, 36.9309, 77.80, 7.4139, 1480.35, 33.20, 7.3, 8.91, 14.0, 52
2008/04/02, 00:28:14, 463.30, 0.00, 2.48, 3.00, 1018.9, 63.0560920, -11.6559930, , 29.20, 8.69, 19.90, 1020.63, -0.20, 0.0, 19.42, 56.28, 56.5, 351, 17.2, 36.92910, 35.12620, 8.6409, 35.1262, 36.9291, 77.50, 7.3772, 1480.26, 17.20, 1.5, 10.86, 12.9, 52
2008/04/02, 00:29:14, 460.40, 0.00, 2.45, 2.90, 1019.0, 63.0579930, -11.6543180, , 18.60, 5.86, 17.60, 1020.24, -0.10, 0.0, 19.42, 56.55, 60.7, 344, 17.8, 36.94120, 35.12320, 8.6568, 35.1232, 36.9412, 77.50, 7.3376, 1480.10, 14.50, 352.3, 9.85, 13.0, 52
2008/04/02, 00:30:14, 464.90, 0.00, 2.48, 3.00, 1019.5, 63.0600530, -11.6525180, , 12.40, 8.36, 20.00, 1019.67, -0.20, 0.0, 19.42, 57.45, 58.9, 351, 17.6, 36.91330, 35.12460, 8.6257, 35.1246, 36.9133, 79.60, 7.3123, 1480.01, 9.10, 1.9, 10.15, 13.4, 52
2008/04/02, 00:31:14, 464.10, 0.00, 2.31, 2.90, 1019.7, 63.0620020, -11.6508130, , 28.80, 7.48, 20.90, 1021.04, -0.20, 0.0, 19.42, 55.21, 56.2, 348, 16.2, 36.86720, 35.09870, 8.6026, 35.0987, 36.8672, 82.00, 7.2986, 1479.96, 17.90, 1.4, 11.16, 12.5, 52
2008/04/02, 00:32:14, 463.10, 0.00, 2.48, 2.90, 1019.2, 63.0640000, -11.6488780, , 22.80, 7.42, 23.20, 1020.11, -0.10, 0.0, 19.42, 55.83, 55.7, 355, 17.8, 36.81930, 35.09600, 8.5542, 35.0960, 36.8193, 85.40, 7.2957, 1479.91, 20.40, 14.3, 10.69, 14.2, 52
2008/04/02, 00:33:14, 463.40, 0.00, 2.34, 2.80, 1018.9, 63.0659900, -11.6464070, , 36.30, 9.58, 26.00, 1020.42, -0.30, 0.0, 19.42, 54.65, 55.4, 346, 16.4, 36.78920, 35.08750, 8.5307, 35.0875, 36.7892, 86.60, 7.3029, 1479.93, 32.50, 4.9, 10.83, 12.1, 52
2008/04/02, 00:34:14, 461.00, 0.00, 2.34, 2.80, 1019.5, 63.0679180, -11.6437850, , 32.50, 8.72, 25.40, 1020.50, -0.20, 0.0, 19.42, 55.91, 54.7, 345, 16.3, 36.76220, 35.08880, 8.5006, 35.0888, 36.7622, 86.90, 7.3154, 1479.97, 18.00, 359.2, 10.97, 13.0, 52
2008/04/02, 00:35:14, 461.50, 0.00, 2.29, 2.70, 1019.7, 63.0698220, -11.6413900, , 31.60, 8.65, 26.70, 1020.99, -0.60, 0.0, 19.42, 51.96, 53.9, 355, 15.1, 36.69570, 35.07460, 8.4438, 35.0746, 36.6957, 87.20, 7.3275, 1480.01, 18.50, 17.2, 11.09, 11.5, 52
2008/04/02, 00:36:14, 463.90, 0.00, 2.37, 2.70, 1019.3, 63.0716320, -11.6387750, , 43.30, 7.12, 30.90, 1019.89, -0.40, 0.0, 19.42, 56.28, 58.0, 349, 13.1, 36.65180, 35.07110, 8.4004, 35.0711, 36.6518, 88.80, 7.3367, 1480.04, 30.50, 9.6, 8.08, 9.2, 52
2008/04/02, 00:37:14, 462.20, 0.00, 2.34, 2.80, 1020.0, 63.0732830, -11.6358520, , 36.10, 10.39, 31.00, 1020.77, -0.20, 0.0, 19.42, 56.60, 59.2, 344, 16.3, 36.64630, 35.07420, 8.3914, 35.0742, 36.6463, 87.90, 7.3407, 1480.06, 32.70, 5.3, 6.50, 11.6, 52
2008/04/02, 00:38:14, 460.50, 0.00, 2.26, 2.80, 1020.7, 63.0750870, -11.6330320, , 35.20, 7.23, 31.30, 1021.11, 0.00, 0.0, 19.42, 55.72, 56.3, 346, 14.9, 36.67450, 35.07740, 8.4184, 35.0774, 36.6745, 86.00, 7.3401, 1480.06, 14.20, 2.5, 9.36, 11.0, 52
2008/04/02, 00:39:14, 459.80, 0.00, 1.95, 2.70, 1020.0, 63.0768230, -11.6300670, , 25.60, 8.06, 31.40, 1020.07, -0.50, 0.0, 19.42, 55.67, 57.0, 351, 14.2, 36.66370, 35.06670, 8.4175, 35.0667, 36.6637, 87.60, 7.3400, 1480.06, 22.00, 11.4, 9.86, 10.7, 52
2008/04/02, 00:40:14, 456.90, 0.00, 2.31, 2.70, 1019.1, 63.0787270, -11.6270820, , 40.20, 8.65, 30.30, 1021.18, -0.30, 0.0, 19.42, 57.56, 59.9, 341, 16.1, 36.66180, 35.02800, 8.4544, 35.0280, 36.6618, 90.60, 7.3361, 1479.96, 30.20, 0.3, 7.74, 12.3, 52
2008/04/02, 00:41:14, 454.50, 0.00, 2.34, 2.80, 1018.9, 63.0805620, -11.6242620, , 34.10, 10.59, 29.20, 1020.20, 0.20, 0.0, 19.42, 58.93, 59.4, 345, 17.3, 36.67080, 35.01700, 8.4750, 35.0170, 36.6708, 82.40, 7.3261, 1480.01, 18.20, 7.3, 10.70, 14.1, 52
2008/04/02, 00:42:14, 453.30, 0.00, 2.48, 2.80, 1020.0, 63.0824370, -11.6212330, , 41.20, 8.82, 30.20, 1020.45, 0.20, 0.0, 19.42, 59.86, 63.9, 350, 15.6, 36.76140, 35.08640, 8.5021, 35.0864, 36.7614, 81.50, 7.3159, 1479.98, 18.60, 17.1, 10.35, 11.2, 52
2008/04/02, 00:43:14, 461.90, 0.00, 2.51, 2.90, 1019.3, 63.0843730, -11.6182300, , 25.60, 10.44, 30.70, 1019.57, -0.10, 0.0, 19.42, 59.75, 59.7, 352, 17.8, 36.76930, 35.08500, 8.5119, 35.0850, 36.7693, 80.50, 7.3020, 1479.93, 20.00, 12.4, 8.84, 13.5, 52
2008/04/02, 00:44:13, 461.40, 0.00, 2.20, 2.80, 1019.9, 63.0861850, -11.6155130, , 43.70, 5.87, 30.90, 1019.56, -0.10, 0.0, 19.42, 54.46, 54.7, 359, 18.7, 36.75930, 35.08450, 8.5018, 35.0845, 36.7593, 79.90, 7.2881, 1479.87, 39.00, 28.9, 13.09, 16.0, 52
2008/04/02, 00:45:13, 459.30, 0.00, 2.40, 2.80, 1020.0, 63.0879020, -11.6128720, , 36.50, 6.51, 30.90, 1020.16, -0.10, 0.0, 19.42, 55.75, 56.0, 340, 16.9, 36.74690, 35.08710, 8.4859, 35.0871, 36.7469, 79.30, 7.2759, 1479.82, 40.40, 2.5, 12.74, 14.3, 52
2008/04/02, 00:46:14, 458.80, 0.00, 2.29, 2.70, 1019.7, 63.0896750, -11.6099870, , 33.40, 11.32, 29.70, 1021.26, -0.20, 0.0, 19.42, 53.01, 55.4, 340, 14.9, 36.75340, 35.08430, 8.4957, 35.0843, 36.7534, 82.40, 7.2653, 1479.78, 10.20, 358.0, 12.07, 12.0, 52
2008/04/02, 00:47:14, 453.20, 0.00, 2.40, 2.70, 1019.0, 63.0916180, -11.6068550, , 33.20, 8.38, 28.90, 1020.30, -0.10, 0.0, 19.42, 55.77, 57.5, 343, 17.2, 36.74600, 35.08880, 8.4833, 35.0888, 36.7460, 84.20, 7.2536, 1479.74, 2.50, 2.2, 9.93, 13.2, 52
2008/04/02, 00:48:14, 457.00, 0.00, 2.26, 2.70, 1020.2, 63.0934070, -11.6041080, , 29.90, 8.97, 29.90, 1021.06, -0.10, 0.0, 19.42, 55.53, 59.0, 344, 14.5, 36.72580, 35.08670, 8.4638, 35.0867, 36.7258, 87.20, 7.2420, 1479.69, 11.50, 2.7, 9.46, 10.1, 52
2008/04/02, 00:49:14, 454.40, 0.00, 2.23, 2.70, 1019.2, 63.0952500, -11.6011100, , 41.40, 9.47, 31.60, 1020.86, -0.20, 0.0, 19.42, 56.07, 58.1, 341, 15.5, 36.72610, 35.08740, 8.4634, 35.0874, 36.7261, 90.90, 7.2309, 1479.65, 18.10, 3.0, 8.84, 12.1, 52
2008/04/02, 00:50:14, 456.10, 0.00, 2.17, 2.70, 1019.0, 63.0970450, -11.5982050, , 24.50, 5.76, 30.90, 1020.70, -0.30, 0.0, 19.42, 55.69, 56.7, 349, 15.8, 36.69210, 35.08360, 8.4310, 35.0836, 36.6921, 90.30, 7.2190, 1479.60, 12.40, 9.4, 10.52, 12.7, 52
2008/04/02, 00:51:14, 456.10, 0.00, 2.29, 2.70, 1020.2, 63.0988650, -11.5954080, , 45.10, 7.83, 32.30, 1020.64, -0.40, 0.0, 19.42, 56.87, 58.4, 352, 16.1, 36.70370, 35.07840, 8.4486, 35.0784, 36.7037, 91.80, 7.2060, 1479.40, 22.90, 19.5, 8.84, 11.6, 52
2008/04/02, 00:52:14, 450.90, 0.00, 2.29, 2.70, 1019.0, 63.1006320, -11.5924820, , 35.20, 9.46, 29.70, 1020.96, -0.10, 0.0, 19.42, 56.01, 57.5, 351, 14.1, 36.72050, 35.11860, 8.4261, 35.1186, 36.7205, 90.60, 7.1939, 1479.55, 32.50, 15.9, 9.56, 10.5, 52
2008/04/02, 00:53:14, 459.60, 0.00, 2.20, 2.70, 1020.1, 63.1024430, -11.5901080, , 24.00, 5.83, 22.30, 1020.44, 0.20, 0.0, 19.42, 56.04, 56.8, 352, 15.5, 36.73410, 35.11490, 8.4445, 35.1149, 36.7341, 90.60, 7.1796, 1479.49, 23.90, 12.2, 11.12, 13.8, 52
2008/04/02, 00:54:14, 0.00, 0.00, 2.29, 2.70, 1019.7, 63.1043500, -11.5880150, , 45.80, 4.48, 22.70, 1020.42, 0.00, 0.0, 19.42, 56.47, 58.8, 353, 15.6, 36.71530, 35.10950, 8.4298, 35.1095, 36.7153, 90.60, 7.1683, 1479.44, 35.00, 13.3, 9.67, 12.7, 52
2008/04/02, 00:55:14, 455.90, 0.00, 2.43, 2.80, 1019.2, 63.1061580, -11.5860570, , 32.90, 6.62, 21.50, 1020.61, -0.20, 0.0, 19.42, 58.56, 61.0, 355, 16.8, 36.71480, 35.11510, 8.4236, 35.1151, 36.7148, 90.30, 7.1598, 1479.41, 31.00, 9.5, 8.42, 12.6, 52
2008/04/02, 00:56:13, 453.40, 0.00, 2.26, 2.80, 1019.9, 63.1082600, -11.5838220, , 34.80, 7.54, 21.50, 1020.60, 0.10, 0.0, 19.42, 56.25, 57.7, 0, 16.4, 36.69240, 35.10750, 8.4073, 35.1075, 36.6924, 92.10, 7.1513, 1479.37, 21.60, 14.2, 9.11, 12.3, 52
2008/04/02, 00:57:14, 456.30, 0.00, 2.48, 2.80, 1019.9, 63.1104250, -11.5816550, , 22.70, 7.33, 21.30, 1020.51, 0.10, 0.0, 19.42, 58.59, 61.5, 5, 15.5, 36.68170, 35.10390, 8.3996, 35.1039, 36.6817, 91.50, 7.1369, 1479.30, 36.50, 24.3, 8.30, 10.7, 52
2008/04/02, 00:58:14, 455.20, 0.00, 2.51, 2.90, 1019.3, 63.1124520, -11.5795820, , 24.30, 11.44, 22.00, 1020.11, 0.00, 0.0, 19.42, 58.38, 59.9, 1, 16.9, 36.65560, 35.09910, 8.3765, 35.0991, 36.6556, 90.30, 7.1150, 1479.23, 40.40, 15.3, 7.69, 12.3, 52
2008/04/02, 00:59:14, 454.80, 0.00, 2.48, 2.90, 1020.5, 63.1143580, -11.5775650, , 28.70, 8.73, 22.50, 1019.57, 0.10, 0.0, 19.42, 57.98, 58.8, 0, 16.4, 36.58540, 35.02660, 8.3741, 35.0266, 36.5854, 92.40, 7.0810, 1479.01, 47.80, 18.8, 9.70, 12.2, 52
2008/04/02, 01:00:14, 453.80, 0.00, 2.40, 2.90, 1020.4, 63.1163950, -11.5754680, , 48.30, 4.83, 23.20, 1019.43, 0.10, 0.0, 19.42, 54.54, 54.8, 7, 15.0, 36.57260, 35.03170, 8.3553, 35.0317, 36.5726, 94.30, 7.0290, 1478.81, 48.50, 27.7, 9.39, 10.0, 52
2008/04/02, 01:01:14, 452.90, 0.00, 2.31, 2.80, 1019.6, 63.1184770, -11.5732250, , 26.70, 9.13, 19.90, 1020.75, -0.20, 0.0, 19.42, 54.14, 55.7, 2, 15.2, 36.56530, 35.03270, 8.3464, 35.0327, 36.5653, 94.30, 6.9640, 1478.54, 51.30, 16.7, 8.59, 10.4, 52
2008/04/02, 01:02:14, 451.20, 0.00, 2.29, 2.80, 1019.6, 63.1206300, -11.5712680, , 25.10, 9.45, 21.00, 1020.54, -0.20, 0.0, 19.42, 54.11, 55.0, 7, 15.0, 36.57720, 35.03510, 8.3568, 35.0351, 36.5772, 94.80, 6.9023, 1478.31, 48.70, 25.2, 7.83, 10.1, 52
2008/04/02, 01:03:14, 448.60, 0.00, 2.37, 2.80, 1020.4, 63.1226230, -11.5693170, , 19.70, 8.90, 21.40, 1020.72, 0.10, 0.0, 19.42, 56.41, 58.0, 359, 14.9, 36.55260, 35.03530, 8.3303, 35.0353, 36.5526, 94.00, 6.8457, 1478.10, 46.00, 13.8, 9.23, 11.8, 52
2008/04/02, 01:04:14, 451.50, 0.00, 2.48, 2.80, 1019.3, 63.1246680, -11.5671900, , 28.30, 10.13, 19.50, 1020.59, 0.00, 0.0, 19.42, 57.64, 60.1, 350, 16.1, 36.52250, 35.03260, 8.3007, 35.0326, 36.5225, 94.30, 6.7870, 1477.87, 37.60, 4.1, 8.45, 12.4, 52
2008/04/02, 01:05:14, 454.80, 0.00, 2.37, 2.90, 1019.8, 63.1264530, -11.5656450, , 27.80, 8.15, 16.80, 1020.57, 0.00, 0.0, 19.42, 56.12, 58.2, 349, 15.6, 36.63360, 35.15720, 8.2948, 35.1572, 36.6336, 94.60, 6.7141, 1477.74, 22.90, 359.9, 9.07, 11.2, 52
2008/04/02, 01:06:14, 453.60, 0.00, 2.56, 2.90, 1019.6, 63.1286380, -11.5640120, , 8.50, 9.33, 17.10, 1020.03, 0.10, 0.0, 19.42, 56.49, 59.2, 6, 16.3, 36.57600, 35.14920, 8.2413, 35.1492, 36.5760, 95.80, 6.6316, 1477.41, 12.70, 19.5, 8.08, 11.8, 52
2008/04/02, 01:07:14, 451.10, 0.00, 2.45, 2.90, 1020.4, 63.1310080, -11.5623370, , 7.00, 9.82, 15.40, 1020.38, -0.10, 0.0, 19.42, 55.77, 57.6, 357, 13.9, 36.46150, 35.13380, 8.1344, 35.1338, 36.4615, 98.80, 6.5526, 1477.09, 37.40, 3.1, 7.79, 9.2, 52
2008/04/02, 01:08:13, 449.70, 0.00, 2.56, 3.00, 1019.5, 63.1333620, -11.5608030, , 16.70, 10.58, 15.10, 1020.09, 0.00, 0.0, 19.42, 58.14, 60.5, 3, 16.0, 36.34810, 35.11860, 8.0283, 35.1186, 36.3481, 102.20, 6.4801, 1476.78, 38.10, 21.1, 6.96, 11.3, 52
2008/04/02, 01:09:14, 451.00, 0.00, 2.54, 3.00, 1020.1, 63.1354980, -11.5595420, , 7.10, 7.23, 16.40, 1020.77, 0.10, 0.0, 19.42, 56.47, 58.3, 3, 13.0, 36.28550, 35.10900, 7.9708, 35.1090, 36.2855, 101.90, 6.4221, 1476.55, 32.40, 12.7, 7.82, 8.4, 52
2008/04/02, 01:10:14, 448.00, 0.00, 2.51, 3.00, 1019.2, 63.1376630, -11.5582850, , 19.10, 9.45, 17.10, 1020.56, 0.10, 0.0, 19.42, 58.72, 60.5, 356, 13.8, 36.22650, 35.08960, 7.9268, 35.0896, 36.2265, 101.60, 6.3796, 1476.35, 46.70, 8.6, 7.10, 9.5, 52
2008/04/02, 01:11:13, 447.20, 0.00, 2.65, 3.00, 1019.5, 63.1398350, -11.5569850, , 16.60, 5.23, 15.90, 1020.26, 0.30, 0.0, 19.42, 59.99, 61.9, 353, 16.2, 36.15700, 35.08060, 7.8611, 35.0806, 36.1570, 102.80, 6.3481, 1476.22, 39.10, 6.1, 6.78, 11.9, 52
2008/04/02, 01:12:14, 449.20, 0.00, 2.79, 3.10, 1019.5, 63.1418720, -11.5558420, , 13.70, 7.65, 16.20, 1019.64, -0.20, 0.0, 19.42, 60.68, 63.3, 353, 16.4, 36.11610, 35.06640, 7.8313, 35.0664, 36.1161, 101.60, 6.3273, 1476.12, 33.20, 7.6, 8.74, 12.6, 52
2008/04/02, 01:13:14, 446.00, 0.00, 2.68, 3.10, 1019.0, 63.1438200, -11.5548330, , 19.80, 7.80, 14.80, 1020.83, 0.30, 0.0, 19.42, 61.15, 63.9, 3, 17.1, 35.94150, 35.03400, 7.6758, 35.0340, 35.9415, 102.80, 6.3160, 1476.05, 35.50, 16.6, 8.76, 12.5, 52
2008/04/02, 01:14:14, 445.40, 0.00, 2.65, 3.10, 1019.2, 63.1458580, -11.5538950, , 0.10, 7.46, 14.60, 1021.29, 0.10, 0.0, 19.42, 58.14, 59.7, 0, 14.6, 35.85160, 35.04690, 7.5663, 35.0469, 35.8516, 101.60, 6.3147, 1476.02, 40.20, 11.5, 9.95, 10.6, 52
2008/04/02, 01:15:14, 446.00, 0.00, 2.70, 3.00, 1019.4, 63.1479670, -11.5529800, , 18.30, 8.82, 15.40, 1019.83, 0.10, 0.0, 19.42, 59.73, 62.2, 10, 16.2, 35.75970, 35.04200, 7.4721, 35.0420, 35.7597, 105.90, 6.3224, 1476.07, 37.30, 26.3, 9.14, 12.8, 52
2008/04/02, 01:16:14, 446.20, 0.00, 2.65, 3.10, 1019.4, 63.1499720, -11.5521900, , 13.80, 6.91, 15.80, 1020.56, 0.10, 0.0, 19.42, 60.81, 62.4, 0, 16.6, 35.70810, 35.01870, 7.4395, 35.0187, 35.7081, 104.00, 6.3358, 1476.12, 47.00, 13.5, 9.84, 13.5, 52
2008/04/02, 01:17:14, 445.80, 0.00, 2.68, 3.10, 1019.3, 63.1518550, -11.5514250, , 15.80, 8.27, 14.80, 1020.08, 0.10, 0.0, 19.42, 57.37, 59.0, 1, 16.1, 35.72950, 35.04130, 7.4402, 35.0413, 35.7295, 104.40, 6.3559, 1476.19, 40.00, 17.4, 10.82, 12.5, 52
2008/04/02, 01:18:14, 448.50, 0.00, 2.59, 3.10, 1020.2, 63.1537220, -11.5508720, , 1.80, 6.91, 14.00, 1020.35, 0.00, 0.0, 19.42, 58.48, 60.9, 358, 13.2, 35.71990, 35.04290, 7.4283, 35.0429, 35.7199, 106.20, 6.3738, 1476.24, 35.90, 6.2, 10.43, 9.2, 52
2008/04/02, 01:19:13, 449.70, 0.00, 2.84, 3.20, 1019.3, 63.1555570, -11.5501030, , 7.70, 6.87, 15.50, 1019.65, 0.30, 0.0, 19.42, 60.47, 63.2, 349, 16.0, 35.72350, 35.04470, 7.4304, 35.0447, 35.7235, 106.20, 6.3969, 1476.35, 31.50, 0.5, 10.21, 13.3, 52
2008/04/02, 01:20:13, 442.40, 0.00, 2.81, 3.20, 1019.1, 63.1576300, -11.5492800, , 16.40, 6.97, 15.90, 1020.72, 0.30, 0.0, 19.42, 57.95, 60.0, 355, 16.6, 35.74580, 35.04830, 7.4510, 35.0483, 35.7458, 104.40, 6.4240, 1476.47, 23.40, 7.2, 8.76, 12.1, 52
2008/04/02, 01:21:14, 443.20, 0.00, 2.59, 3.20, 1019.6, 63.1596630, -11.5484450, , 6.00, 6.14, 13.10, 1020.20, 0.00, 0.0, 19.42, 57.29, 58.3, 0, 16.3, 35.75670, 35.04850, 7.4624, 35.0485, 35.7567, 103.70, 6.4563, 1476.61, 28.70, 13.9, 9.88, 12.5, 52
2008/04/02, 01:22:14, 444.70, 0.00, 2.65, 3.10, 1019.5, 63.1616850, -11.5477750, , 8.00, 8.79, 15.30, 1020.20, -0.20, 0.0, 19.42, 57.80, 59.5, 0, 16.3, 35.77230, 35.05690, 7.4709, 35.0569, 35.7723, 103.40, 6.4933, 1476.75, 40.90, 13.4, 10.13, 11.8, 52
2008/04/02, 01:23:14, 444.60, 0.00, 2.90, 3.20, 1019.7, 63.1636400, -11.5471580, , 9.80, 7.15, 15.40, 1019.74, 0.00, 0.0, 19.42, 60.91, 64.2, 356, 16.2, 35.79580, 35.06240, 7.4908, 35.0624, 35.7958, 103.40, 6.5325, 1476.92, 39.90, 9.9, 9.49, 12.6, 52
2008/04/02, 01:24:14, 443.30, 0.00, 2.56, 3.20, 1019.2, 63.1657420, -11.5464520, , 8.50, 9.22, 16.20, 1019.66, 0.20, 0.0, 19.42, 55.67, 56.7, 2, 16.1, 35.84630, 35.06460, 7.5431, 35.0646, 35.8463, 104.00, 6.5696, 1477.06, 39.50, 19.0, 9.53, 12.5, 52
2008/04/02, 01:25:14, 442.20, 0.00, 2.76, 3.20, 1020.0, 63.1677330, -11.5457180, , 17.80, 5.60, 16.40, 1020.42, -0.20, 0.0, 19.42, 54.09, 55.0, 0, 15.8, 35.87680, 35.07300, 7.5676, 35.0730, 35.8768, 101.90, 6.6057, 1477.21, 57.70, 21.0, 8.40, 9.4, 52
2008/04/02, 01:26:14, 443.50, 0.00, 2.65, 3.20, 1020.3, 63.1695150, -11.5451630, , 9.30, 7.67, 15.70, 1020.75, 0.00, 1.2, 19.44, 52.31, 53.2, 356, 12.5, 35.93700, 35.10320, 7.6025, 35.1032, 35.9370, 101.20, 6.6450, 1477.40, 39.90, 10.2, 10.51, 8.8, 52
2008/04/02, 01:27:14, 438.90, 0.00, 2.70, 3.20, 1019.7, 63.1715350, -11.5445400, , 7.90, 8.08, 15.80, 1021.47, -0.20, 0.0, 19.44, 52.15, 53.1, 356, 13.8, 36.01500, 35.10930, 7.6803, 35.1093, 36.0150, 100.40, 6.6835, 1477.56, 32.00, 8.2, 9.06, 10.7, 52
2008/04/02, 01:28:14, 441.20, 0.00, 2.95, 3.20, 1020.1, 63.1735050, -11.5438830, , 4.20, 5.82, 14.80, 1021.40, 0.00, 0.0, 19.44, 55.21, 56.9, 356, 11.8, 36.02450, 35.11520, 7.6846, 35.1152, 36.0245, 100.00, 6.7184, 1477.70, 36.00, 7.9, 7.44, 7.9, 52
2008/04/02, 01:29:14, 438.40, 0.00, 2.95, 3.30, 1020.8, 63.1754930, -11.5433000, , 6.50, 6.80, 14.40, 1021.66, 0.10, 0.0, 19.44, 57.16, 58.4, 353, 14.6, 36.08410, 35.11900, 7.7448, 35.1190, 36.0841, 98.00, 6.7496, 1477.83, 35.80, 4.5, 6.83, 10.3, 52
2008/04/02, 01:30:13, 439.70, 0.00, 2.79, 3.30, 1019.9, 63.1775120, -11.5428170, , 10.40, 7.00, 15.80, 1020.88, 0.10, 0.0, 19.44, 55.45, 56.4, 352, 12.8, 36.13940, 35.12580, 7.7974, 35.1258, 36.1394, 98.00, 6.7870, 1477.96, 34.90, 12.2, 9.75, 10.1, 52
2008/04/02, 01:31:14, 0.00, 0.00, 2.90, 3.30, 1020.0, 63.1794850, -11.5422050, , 11.50, 8.76, 14.00, 1020.03, 0.20, 0.0, 19.44, 59.30, 61.1, 347, 13.8, 36.13820, 35.09870, 7.8229, 35.0987, 36.1382, 101.00, 6.8328, 1478.16, 30.10, 2.8, 10.25, 11.6, 52
2008/04/02, 01:32:14, 438.80, 0.00, 3.01, 3.40, 1020.6, 63.1814350, -11.5416420, , 3.60, 7.73, 15.20, 1020.69, 0.10, 0.0, 19.44, 62.80, 65.2, 356, 15.2, 36.20070, 35.12750, 7.8614, 35.1275, 36.2007, 97.60, 6.8789, 1478.34, 19.80, 7.3, 9.25, 12.0, 52